Location: Newark
(41.5333°N, 14.5500°E)
Time: 00:16:26
(UTC+00:00)

Envisat - Pass Details

Date: 26 January 2020
Orbit: 764 x 766 km, 98.1° (Epoch: 27 February)

Event Time Altitude Azimuth Distance (km) Brightness Sun altitude
Rises 05:34:40 0° 15° (NNE) 3,241 6.2 -8.7°
Reaches altitude 10° 05:37:00 10° 17° (NNE) 2,310 5.5 -8.3°
Maximum altitude 05:42:05 70° 102° (ESE) 813 3.4 -7.4°
Drops below altitude 10° 05:47:07 10° 186° (S) 2,293 5.7 -6.5°
Sets 05:49:25 0° 188° (S) 3,214 6.4 -6.1°
